Retour au catalogue

STARLINK-11535

ActifCommunicationsVLEO
NORAD 62595·PAYLOAD·🇺🇸 United States

Lancé Jan 13, 2025 depuis Cape Canaveral Space Force Station

Loading…

Prochains Passages (prochaines 24 heures)

TLE

FraisSource: CelesTrak SupGP

Époque: Sep 14, 2026, 23:00 UTC

1 62595C 25008J   26257.95881944  .00109060  00000+0  84682-3 0  2575
2 62595  43.0008  64.9195 0001785 274.7888 161.3562 15.70792105    15

Suivez STARLINK-11535 en temps réel avec AllMySat

Download on the App Store